This is the latest recevied weather packets stored in our database for station/object N3TTT-13. If no packets are shown the sender has not sent any weather packets the latest 10 day(s).
| Time | Temp. | Humidity | Pressure | Rain* | Wind** | Luminosity | Snow |
|---|---|---|---|---|---|---|---|
| 1777813080 | 8.89° C | 63% | 1015.8 hPa | 0 mm | - | 399 W/m² | - |
| 1777812778 | 8.33° C | 66% | 1015.4 hPa | 0 mm | - | 402 W/m² | - |
| 1777812474 | 7.78° C | 67% | 1015.5 hPa | 0 mm | - | 111 W/m² | - |
| 1777812173 | 7.78° C | 66% | 1015.5 hPa | 0 mm | - | 110 W/m² | - |
| 1777811870 | 8.33° C | 66% | 1015.3 hPa | 0 mm | - | 125 W/m² | - |
| 1777811569 | 7.78° C | 66% | 1015.4 hPa | 0 mm | - | 305 W/m² | - |
| 1777811264 | 7.78° C | 67% | 1015.4 hPa | 0 mm | - | 157 W/m² | - |
| 1777810962 | 7.78° C | 67% | 1015.3 hPa | 0 mm | - | 121 W/m² | - |
| 1777810658 | 7.78° C | 68% | 1015.3 hPa | 0 mm | - | 95 W/m² | - |
| 1777810355 | 7.78° C | 69% | 1015.2 hPa | 0 mm | - | 88 W/m² | - |
| 1777810051 | 7.78° C | 71% | 1015.2 hPa | 0 mm | - | 95 W/m² | - |
| 1777809749 | 7.78° C | 68% | 1015.3 hPa | 0 mm | - | 93 W/m² | - |
| 1777809446 | 7.78° C | 68% | 1015 hPa | 0 mm | - | 113 W/m² | - |
| 1777809144 | 8.33° C | 68% | 1015.2 hPa | 0 mm | - | 122 W/m² | - |
| 1777808842 | 8.33° C | 69% | 1015 hPa | 0 mm | - | 180 W/m² | - |
| 1777808538 | 7.78° C | 71% | 1015 hPa | 0 mm | - | 159 W/m² | - |
| 1777808235 | 7.22° C | 73% | 1015 hPa | 0 mm | - | 111 W/m² | - |
| 1777807934 | 6.67° C | 75% | 1014.8 hPa | 0 mm | - | 98 W/m² | - |
| 1777807631 | 6.67° C | 76% | 1014.8 hPa | 0 mm | - | 77 W/m² | - |
| 1777807329 | 6.11° C | 77% | 1014.7 hPa | 0 mm | - | 52 W/m² | - |
| 1777807024 | 6.11° C | 77% | 1014.7 hPa | 0 mm | - | 53 W/m² | - |
| 1777806721 | 6.11° C | 77% | 1014.8 hPa | 0 mm | - | 53 W/m² | - |
| 1777806417 | 6.11° C | 77% | 1014.8 hPa | 0 mm | - | 39 W/m² | - |
| 1777806114 | 5.56° C | 77% | 1014.7 hPa | 0 mm | - | 31 W/m² | - |
| 1777805810 | 5.56° C | 78% | 1014.4 hPa | 0 mm | - | 24 W/m² | - |
* Rain latest hour (hover to see other rain measurements)
** Current wind speed in m/s (hover to see current wind gust speed)